CT1ETE Weather Reports


time (UTC)temp
C
wind
direction
speed
KPH
gust
KPH
rain 1hr
cm
rain 24hr
cm
rain mn
cm
humidity
%
barometer
mb
20180421014231 18 84 6.4 11.3 0.00 0.00 0.00 52 1015.5
20180421012740 18 117 8.0 12.9 0.00 0.00 0.00 50 1015.5
20180421012730 18 82 6.4 11.3 0.00 0.00 0.00 51 1015.4
20180421011230 18 117 8.0 12.9 0.00 0.00 0.00 50 1015.5
20180421005740 18 129 9.7 12.9 0.00 0.00 0.00 51 1015.6
20180421005730 18 131 6.4 11.3 0.00 0.00 0.00 50 1015.7
20180421004230 18 129 9.7 12.9 0.00 0.00 0.00 51 1015.6
20180421002740 19 103 9.7 14.5 0.00 0.00 0.00 50 1015.9
20180421002730 18 110 9.7 14.5 0.00 0.00 0.00 50 1015.7
20180421001230 19 103 9.7 14.5 0.00 0.00 0.00 50 1015.9
20180420235730 19 130 9.7 12.9 0.00 0.00 0.00 49 1015.9
20180420234231 19 124 9.7 12.9 0.00 0.00 0.00 49 1016.0
20180420232730 20 132 6.4 11.3 0.00 0.00 0.00 49 1016.0
20180420231230 20 136 4.8 11.3 0.00 0.00 0.00 49 1016.0
20180420225728 20 145 6.4 14.5 0.00 0.00 0.00 49 1016.0
20180420224227 20 133 8.0 14.5 0.00 0.00 0.00 49 1016.0
20180420222726 20 125 6.4 16.1 0.00 0.00 0.00 48 1016.0
20180420221224 20 142 9.7 19.3 0.00 0.00 0.00 48 1016.1
20180420215733 20 63 12.9 27.4 0.00 0.00 0.00 47 1015.8
20180420215724 20 109 11.3 20.9 0.00 0.00 0.00 48 1015.8
20180420214224 20 63 12.9 27.4 0.00 0.00 0.00 47 1015.8
20180420212724 21 73 16.1 25.7 0.00 0.00 0.00 45 1015.8
20180420211224 21 109 17.7 29.0 0.00 0.00 0.00 45 1015.8
20180420205722 21 121 17.7 30.6 0.00 0.00 0.00 45 1015.6
20180420204222 21 63 17.7 29.0 0.00 0.00 0.00 44 1015.6
20180420202721 21 77 17.7 25.7 0.00 0.00 0.00 45 1015.6
20180420201222 21 90 17.7 27.4 0.00 0.00 0.00 45 1015.5
20180420195722 22 79 16.1 25.7 0.00 0.00 0.00 44 1015.5
20180420194230 22 78 12.9 19.3 0.00 0.00 0.00 43 1015.1
20180420194222 22 61 14.5 20.9 0.00 0.00 0.00 44 1015.1
20180420192719 22 78 12.9 19.3 0.00 0.00 0.00 43 1015.1
20180420191220 22 67 11.3 16.1 0.00 0.00 0.00 42 1015.1
20180420185720 22 85 8.0 17.7 0.00 0.00 0.00 43 1014.8
20180420184228 23 91 8.0 20.9 0.00 0.00 0.00 42 1014.6
20180420184219 23 75 9.7 17.7 0.00 0.00 0.00 42 1014.7
20180420182720 23 91 8.0 20.9 0.00 0.00 0.00 42 1014.6
20180420181219 23 86 9.7 20.9 0.00 0.00 0.00 40 1014.6
20180420175718 23 49 9.7 20.9 0.00 0.00 0.00 40 1014.5
20180420174218 23 44 14.5 30.6 0.00 0.00 0.00 38 1014.4
20180420172718 23 53 16.1 30.6 0.00 0.00 0.00 37 1014.4
20180420171227 25 46 11.3 27.4 0.00 0.00 0.00 35 1014.3
20180420171218 24 74 14.5 32.2 0.00 0.00 0.00 35 1014.3
20180420165718 25 46 11.3 27.4 0.00 0.00 0.00 35 1014.3
20180420164218 25 59 14.5 27.4 0.00 0.00 0.00 34 1014.3
20180420162717 25 32 16.1 29.0 0.00 0.00 0.00 33 1014.4
20180420161218 25 123 14.5 37.0 0.00 0.00 0.00 33 1014.4
20180420155718 25 63 19.3 37.0 0.00 0.00 0.00 33 1014.4
20180420154226 25 40 14.5 37.0 0.00 0.00 0.00 32 1014.7
20180420154217 25 69 16.1 37.0 0.00 0.00 0.00 32 1014.6
20180420152827 25 78 20.9 37.0 0.00 0.00 0.00 34 1014.8
20180420152717 25 40 14.5 37.0 0.00 0.00 0.00 32 1014.7
20180420151217 25 81 24.1 40.2 0.00 0.00 0.00 34 1014.7
20180420145718 25 78 20.9 37.0 0.00 0.00 0.00 34 1014.8
20180420144216 25 40 22.5 37.0 0.00 0.00 0.00 35 1015.0
20180420142715 25 5 17.7 33.8 0.00 0.00 0.00 36 1015.0
20180420141216 25 22 20.9 43.5 0.00 0.00 0.00 38 1014.9
20180420135715 24 90 27.4 43.5 0.00 0.00 0.00 37 1015.0
20180420134215 24 109 24.1 46.7 0.00 0.00 0.00 37 1015.2
20180420132715 25 75 17.7 38.6 0.00 0.00 0.00 38 1015.5
20180420131215 24 90 19.3 46.7 0.00 0.00 0.00 37 1015.6
20180420125715 24 75 29.0 48.3 0.00 0.00 0.00 38 1015.6
20180420124215 24 72 22.5 48.3 0.00 0.00 0.00 38 1015.8
20180420122716 23 46 27.4 51.5 0.00 0.00 0.00 37 1015.7
20180420121223 23 38 24.1 49.9 0.00 0.00 0.00 42 1015.6
20180420121215 23 44 32.2 53.1 0.00 0.00 0.00 38 1015.7
20180420115827 22 75 22.5 46.7 0.00 0.00 0.00 44 1015.7
20180420115715 23 38 24.1 49.9 0.00 0.00 0.00 42 1015.6
20180420114213 22 75 22.5 46.7 0.00 0.00 0.00 44 1015.7
20180420112721 22 5 25.7 46.7 0.00 0.00 0.00 47 1016.1
20180420112713 22 38 24.1 46.7 0.00 0.00 0.00 45 1015.8
20180420111213 22 5 25.7 46.7 0.00 0.00 0.00 47 1016.1
20180420105713 22 80 20.9 41.8 0.00 0.00 0.00 45 1016.4
20180420104213 22 55 19.3 37.0 0.00 0.00 0.00 46 1016.6
20180420102827 20 68 29.0 43.5 0.00 0.00 0.00 51 1016.8
20180420102726 21 29 20.9 41.8 0.00 0.00 0.00 50 1016.8
20180420102712 21 54 17.7 30.6 0.00 0.00 0.00 50 1016.8
20180420101431 20 79 27.4 48.3 0.00 0.00 0.00 51 1016.6
20180420101213 21 29 20.9 41.8 0.00 0.00 0.00 50 1016.8
20180420095711 20 68 29.0 43.5 0.00 0.00 0.00 51 1016.8
20180420094211 20 79 27.4 48.3 0.00 0.00 0.00 51 1016.6
20180420092711 20 62 30.6 48.3 0.00 0.00 0.00 51 1016.5
20180420091219 20 80 25.7 38.6 0.00 0.00 0.00 51 1016.5
20180420091211 20 74 30.6 48.3 0.00 0.00 0.00 51 1016.6
20180420085829 19 44 22.5 35.4 0.00 0.00 0.00 52 1016.6
20180420085822 20 69 27.4 43.5 0.00 0.00 0.00 52 1016.6
20180420085711 20 80 25.7 38.6 0.00 0.00 0.00 51 1016.5
20180420084324 19 96 25.7 41.8 0.00 0.00 0.00 52 1016.7
20180420084211 20 69 27.4 43.5 0.00 0.00 0.00 52 1016.6
20180420082711 19 96 25.7 41.8 0.00 0.00 0.00 52 1016.7
20180420081211 19 68 24.1 41.8 0.00 0.00 0.00 53 1016.5
20180420075711 19 44 22.5 35.4 0.00 0.00 0.00 52 1016.6
20180420074211 18 80 24.1 33.8 0.00 0.00 0.00 53 1016.6
20180420072711 18 72 25.7 37.0 0.00 0.00 0.00 53 1016.6
20180420071210 18 71 22.5 40.2 0.00 0.00 0.00 53 1016.5
20180420065720 18 64 19.3 30.6 0.00 0.00 0.00 54 1016.5
20180420065711 18 78 19.3 29.0 0.00 0.00 0.00 54 1016.5
20180420064211 18 64 19.3 30.6 0.00 0.00 0.00 54 1016.5
20180420062711 18 111 22.5 37.0 0.00 0.00 0.00 53 1016.5
20180420061219 18 86 24.1 32.2 0.00 0.00 0.00 53 1016.2
20180420061211 18 84 27.4 40.2 0.00 0.00 0.00 53 1016.4
20180420055710 18 86 24.1 32.2 0.00 0.00 0.00 53 1016.2
20180420054210 18 86 16.1 25.7 0.00 0.00 0.00 54 1016.2
20180420052711 18 96 14.5 27.4 0.00 0.00 0.00 56 1016.2
20180420051219 18 60 25.7 40.2 0.00 0.00 0.00 54 1016.1
20180420051211 18 90 22.5 33.8 0.00 0.00 0.00 54 1016.0
20180420045709 18 60 25.7 40.2 0.00 0.00 0.00 54 1016.1
20180420044208 18 68 27.4 37.0 0.00 0.00 0.00 54 1016.0
20180420042708 18 113 24.1 38.6 0.00 0.00 0.00 55 1016.1
20180420041208 18 90 24.1 37.0 0.00 0.00 0.00 54 1016.2
20180420035709 18 76 14.5 25.7 0.00 0.00 0.00 55 1016.3
20180420034207 18 171 14.5 22.5 0.00 0.00 0.00 54 1016.4
20180420032707 19 78 12.9 20.9 0.00 0.00 0.00 53 1016.4
20180420031206 18 90 8.0 16.1 0.00 0.00 0.00 56 1016.4
20180420025706 18 86 8.0 16.1 0.00 0.00 0.00 56 1016.6
20180420024206 18 150 8.0 14.5 0.00 0.00 0.00 57 1016.5
20180420022706 18 119 8.0 14.5 0.00 0.00 0.00 58 1016.7
20180420021215 18 115 8.0 14.5 0.00 0.00 0.00 60 1016.7
20180420021206 18 145 6.4 12.9 0.00 0.00 0.00 59 1016.6
20180420015817 17 86 11.3 20.9 0.00 0.00 0.00 67 1016.8
20180420015810 18 115 8.0 14.5 0.00 0.00 0.00 60 1016.7